Terug naar catalogus

SL-12 DEB

ActiefLEO
NORAD 18767·DEBRIS·🇷🇺 Russia

Gelanceerd May 30, 1985 vanaf Baikonur Cosmodrome

Loading…

Volgende Passages (komende 24 uur)

TLE

VersSource: Space-Track

Epoch: Sep 14, 2026, 07:02 UTC

1 18767U 85042K   26257.29307241  .00001113  00000-0  67519-3 0  9995
2 18767  66.5850  10.7256 0139827 188.3218 171.5548 14.05266015963260

Volg SL-12 DEB in realtime met AllMySat

Download on the App Store